timestamp,surface_pressure_avg,surface_temp_avg,battery_voltage,lat,long
2019-01-31 00:00:00+00:00,221.4698,0.98,12.81,47.84626,-54.09684
2019-01-31 00:10:00+00:00,208.4164,0.98,12.81,47.84626,-54.09684
2019-01-31 00:20:00+00:00,213.5714,1.0,12.89,47.84626,-54.09684
2019-01-31 00:30:00+00:00,204.0065,1.0,12.89,47.84626,-54.09684
2019-01-31 00:40:00+00:00,191.0431,1.0,12.89,47.84626,-54.09684
2019-01-31 00:50:00+00:00,192.7081,1.0,12.89,47.84626,-54.09684
2019-01-31 01:00:00+00:00,195.8848,1.0,12.81,47.84626,-54.09684
2019-01-31 01:10:00+00:00,187.5914,1.0,12.73,47.84626,-54.09684
2019-01-31 01:20:00+00:00,189.9998,1.0,12.89,47.84626,-54.09684
2019-01-31 01:30:00+00:00,205.6815,1.0,12.89,47.84626,-54.09684
2019-01-31 01:40:00+00:00,198.0881,1.0,12.89,47.84626,-54.09684
2019-01-31 01:50:00+00:00,193.9464,0.99,12.89,47.84626,-54.09684
2019-01-31 02:00:00+00:00,211.5215,1.0,12.81,47.84626,-54.09684
2019-01-31 02:10:00+00:00,210.3164,1.0,12.73,47.84626,-54.09684
2019-01-31 02:20:00+00:00,201.0881,1.0,12.89,47.84626,-54.09684
2019-01-31 02:30:00+00:00,207.2331,1.02,12.89,47.84626,-54.09684
2019-01-31 02:40:00+00:00,206.4914,1.07,12.89,47.84626,-54.09684
2019-01-31 02:50:00+00:00,198.8714,1.04,12.89,47.84626,-54.09684
2019-01-31 03:00:00+00:00,200.5981,1.07,12.81,47.84626,-54.09684
2019-01-31 03:10:00+00:00,207.1664,1.1,12.73,47.84626,-54.09684
2019-01-31 03:20:00+00:00,209.6965,1.1,12.81,47.84626,-54.09684
2019-01-31 03:30:00+00:00,215.6298,1.1,12.81,47.84626,-54.09684
2019-01-31 03:40:00+00:00,228.6365,1.1,12.89,47.84626,-54.09684
2019-01-31 03:50:00+00:00,235.2347,1.1,12.89,47.84626,-54.09684
2019-01-31 04:00:00+00:00,242.1647,1.1,12.81,47.84626,-54.09684
2019-01-31 04:10:00+00:00,242.0114,1.1,12.73,47.84626,-54.09684
2019-01-31 04:20:00+00:00,240.0398,1.1,12.81,47.84626,-54.09684
2019-01-31 04:30:00+00:00,241.6981,1.1,12.81,47.84626,-54.09684
2019-01-31 04:40:00+00:00,245.7864,1.1,12.89,47.84626,-54.09684
2019-01-31 04:50:00+00:00,251.3781,1.1,12.89,47.84626,-54.09684
2019-01-31 05:00:00+00:00,255.2297,1.1,12.81,47.84626,-54.09684
2019-01-31 05:10:00+00:00,253.628,1.11,12.73,47.84626,-54.09684
2019-01-31 05:20:00+00:00,257.8964,1.1,12.81,47.84626,-54.09684
2019-01-31 05:30:00+00:00,266.8631,1.1,12.81,47.84626,-54.09684
2019-01-31 05:40:00+00:00,269.9431,1.1,12.89,47.84626,-54.09684
2019-01-31 05:50:00+00:00,269.7597,1.1,12.89,47.84626,-54.09684
2019-01-31 06:00:00+00:00,271.6246,1.08,12.81,47.84626,-54.09684
2019-01-31 06:10:00+00:00,270.8448,1.1,12.73,47.84626,-54.09684
2019-01-31 06:20:00+00:00,277.3846,1.1,12.81,47.84626,-54.09684
2019-01-31 06:30:00+00:00,286.8564,1.11,12.81,47.84626,-54.09684
2019-01-31 06:40:00+00:00,294.0514,1.14,12.81,47.84626,-54.09684
2019-01-31 06:50:00+00:00,294.0597,1.1,12.81,47.84626,-54.09684
2019-01-31 07:00:00+00:00,301.0181,1.1,12.81,47.84626,-54.09684
2019-01-31 07:10:00+00:00,310.8314,1.11,12.73,47.84626,-54.09684
2019-01-31 07:20:00+00:00,314.918,1.12,12.81,47.84626,-54.09684
2019-01-31 07:30:00+00:00,316.4847,1.1,12.81,47.84626,-54.09684
2019-01-31 07:40:00+00:00,326.4363,1.1,12.81,47.84626,-54.09684
2019-01-31 07:50:00+00:00,336.8445,1.1,12.81,47.84626,-54.09684
2019-01-31 08:00:00+00:00,336.4946,1.1,12.73,47.84626,-54.09684
2019-01-31 08:10:00+00:00,332.8796,1.07,12.73,47.84626,-54.09684
2019-01-31 08:20:00+00:00,341.5596,1.06,12.81,47.84626,-54.09684
2019-01-31 08:30:00+00:00,342.7629,1.08,12.81,47.84626,-54.09684
2019-01-31 08:40:00+00:00,337.0746,1.07,12.81,47.84626,-54.09684
2019-01-31 08:50:00+00:00,338.6146,1.04,12.81,47.84626,-54.09684
2019-01-31 09:00:00+00:00,336.383,1.08,12.73,47.84626,-54.09684
2019-01-31 09:10:00+00:00,335.1013,1.09,12.73,47.84626,-54.09684
2019-01-31 09:20:00+00:00,334.2096,1.09,12.81,47.84626,-54.09684
2019-01-31 09:30:00+00:00,326.998,1.07,12.81,47.84626,-54.09684
2019-01-31 09:40:00+00:00,316.4114,1.01,12.81,47.84626,-54.09684
2019-01-31 09:50:00+00:00,314.823,1.0,12.81,47.84626,-54.09684
2019-01-31 10:00:00+00:00,315.0963,1.0,12.73,47.84626,-54.09684
2019-01-31 10:10:00+00:00,304.5214,0.9,12.73,47.84626,-54.09684
2019-01-31 10:20:00+00:00,297.063,0.8,12.81,47.84626,-54.09684
2019-01-31 10:30:00+00:00,294.733,0.8,12.81,47.84626,-54.09684
2019-01-31 10:40:00+00:00,288.0564,0.7,12.81,47.84626,-54.09684
2019-01-31 10:50:00+00:00,276.613,0.65,12.81,47.84626,-54.09684
2019-01-31 11:00:00+00:00,270.8714,0.65,12.73,47.84626,-54.09684
2019-01-31 11:10:00+00:00,266.2414,0.6,12.65,47.84626,-54.09684
2019-01-31 11:20:00+00:00,266.4131,0.6,12.81,47.84626,-54.09684
2019-01-31 11:30:00+00:00,261.2398,0.62,12.81,47.84626,-54.09684
2019-01-31 11:40:00+00:00,260.0214,0.63,12.81,47.84626,-54.09684
2019-01-31 11:50:00+00:00,254.3514,0.64,12.81,47.84626,-54.09684
2019-01-31 12:00:00+00:00,250.8747,0.66,12.73,47.84626,-54.09684
2019-01-31 12:10:00+00:00,245.8047,0.67,12.65,47.84626,-54.09684
2019-01-31 12:20:00+00:00,242.8964,0.68,12.81,47.84626,-54.09684
2019-01-31 12:30:00+00:00,238.9831,0.65,12.81,47.84626,-54.09684
2019-01-31 12:40:00+00:00,239.5364,0.66,12.81,47.84626,-54.09684
2019-01-31 12:50:00+00:00,241.7214,0.67,12.81,47.84626,-54.09684
2019-01-31 13:00:00+00:00,235.9631,0.65,12.73,47.84626,-54.09684
2019-01-31 13:10:00+00:00,230.6331,0.64,12.73,47.84626,-54.09684
2019-01-31 13:20:00+00:00,234.5764,0.67,12.81,47.84626,-54.09684
2019-01-31 13:30:00+00:00,238.3864,0.7,12.81,47.84626,-54.09684
2019-01-31 13:40:00+00:00,237.4048,0.7,12.81,47.84626,-54.09684
2019-01-31 13:50:00+00:00,231.8047,0.7,12.89,47.84626,-54.09684
2019-01-31 14:00:00+00:00,236.0214,0.7,12.81,47.84626,-54.09684
2019-01-31 14:10:00+00:00,244.7198,0.7,12.73,47.84626,-54.09684
2019-01-31 14:20:00+00:00,240.0914,0.7,12.81,47.84626,-54.09684
2019-01-31 14:30:00+00:00,225.8448,0.67,12.81,47.84626,-54.09684
2019-01-31 14:40:00+00:00,226.3781,0.62,12.89,47.84626,-54.09684
2019-01-31 14:50:00+00:00,244.3781,0.67,12.89,47.84626,-54.09684
2019-01-31 15:00:00+00:00,239.8581,0.6,12.81,47.84626,-54.09684
2019-01-31 15:10:00+00:00,224.3298,0.6,12.73,47.84626,-54.09684
2019-01-31 15:20:00+00:00,233.7997,0.6,12.81,47.84626,-54.09684
2019-01-31 15:30:00+00:00,244.5614,0.67,12.89,47.84626,-54.09684
2019-01-31 15:40:00+00:00,225.6914,0.6,12.97,47.84626,-54.09684
2019-01-31 15:50:00+00:00,211.4014,0.6,13.05,47.84626,-54.09684
2019-01-31 16:00:00+00:00,227.2647,0.6,13.05,47.84626,-54.09684
2019-01-31 16:10:00+00:00,230.0114,0.6,13.05,47.84626,-54.09684
2019-01-31 16:20:00+00:00,216.0548,0.6,13.29,47.84626,-54.09684
2019-01-31 16:30:00+00:00,212.4831,0.6,13.6,47.84626,-54.09684
2019-01-31 16:40:00+00:00,222.1165,0.6,14.24,47.84626,-54.09684
2019-01-31 16:50:00+00:00,227.9131,0.6,14.56,47.84626,-54.09684
2019-01-31 17:00:00+00:00,228.2898,0.6,14.48,47.84626,-54.09684
2019-01-31 17:10:00+00:00,230.0831,0.6,14.64,47.84626,-54.09684
2019-01-31 17:20:00+00:00,231.7764,0.6,14.8,47.84626,-54.09684
2019-01-31 17:30:00+00:00,240.203,0.68,14.8,47.84626,-54.09684
2019-01-31 17:40:00+00:00,245.8748,0.68,14.8,47.84626,-54.09684
2019-01-31 17:50:00+00:00,243.8064,0.69,14.8,47.84626,-54.09684
2019-01-31 18:00:00+00:00,244.1431,0.7,14.72,47.84626,-54.09684
2019-01-31 18:10:00+00:00,255.8914,0.7,14.64,47.84626,-54.09684
2019-01-31 18:20:00+00:00,265.9514,0.7,14.72,47.84626,-54.09684
2019-01-31 18:30:00+00:00,271.4748,0.7,14.72,47.84626,-54.09684
2019-01-31 18:40:00+00:00,276.9714,0.64,14.72,47.84626,-54.09684
2019-01-31 18:50:00+00:00,288.1481,0.62,14.64,47.84626,-54.09684
2019-01-31 19:00:00+00:00,284.4313,0.65,14.56,47.84626,-54.09684
2019-01-31 19:10:00+00:00,278.1381,0.7,14.4,47.84626,-54.09684
2019-01-31 19:20:00+00:00,289.4747,0.7,14.48,47.84626,-54.09684
2019-01-31 19:30:00+00:00,303.9947,0.7,14.4,47.84626,-54.09684
2019-01-31 19:40:00+00:00,299.7614,0.7,14.32,47.84626,-54.09684
2019-01-31 19:50:00+00:00,297.928,0.72,14.16,47.84626,-54.09684
2019-01-31 20:00:00+00:00,310.6364,0.76,13.92,47.84626,-54.09684
2019-01-31 20:10:00+00:00,318.9647,0.79,13.68,47.84626,-54.09684
2019-01-31 20:20:00+00:00,318.4713,0.79,13.68,47.84626,-54.09684
2019-01-31 20:30:00+00:00,326.5297,0.79,13.6,47.84626,-54.09684
2019-01-31 20:40:00+00:00,340.5247,0.79,13.53,47.84626,-54.09684
2019-01-31 20:50:00+00:00,337.2463,0.79,13.44,47.84626,-54.09684
2019-01-31 21:00:00+00:00,330.9697,0.77,13.29,47.84626,-54.09684
2019-01-31 21:10:00+00:00,338.2629,0.77,13.21,47.84626,-54.09684
2019-01-31 21:20:00+00:00,344.5846,0.75,13.21,47.84626,-54.09684
2019-01-31 21:30:00+00:00,339.1312,0.73,13.21,47.84626,-54.09684
2019-01-31 21:40:00+00:00,327.7596,0.7,13.21,47.84626,-54.09684
2019-01-31 21:50:00+00:00,321.7579,0.7,13.21,47.84626,-54.09684
2019-01-31 22:00:00+00:00,321.8363,0.7,13.13,47.84626,-54.09684
2019-01-31 22:10:00+00:00,313.6331,0.7,13.05,47.84626,-54.09684
2019-01-31 22:20:00+00:00,310.0247,0.7,13.05,47.84626,-54.09684
2019-01-31 22:30:00+00:00,308.3047,0.7,13.05,47.84626,-54.09684
2019-01-31 22:40:00+00:00,306.0663,0.68,13.13,47.84626,-54.09684
2019-01-31 22:50:00+00:00,291.2664,0.65,13.13,47.84626,-54.09684
2019-01-31 23:00:00+00:00,283.5481,0.67,13.05,47.84626,-54.09684
2019-01-31 23:10:00+00:00,283.5897,0.67,12.97,47.84626,-54.09684
2019-01-31 23:20:00+00:00,284.2497,0.66,13.05,47.84626,-54.09684
2019-01-31 23:30:00+00:00,273.0847,0.6,13.05,47.84626,-54.09684
2019-01-31 23:40:00+00:00,267.6664,0.6,13.05,47.84626,-54.09684
2019-01-31 23:50:00+00:00,262.9664,0.6,13.05,47.84626,-54.09684
